Location: El Carrer d�Abaix
(41.5797°N, 2.1791°E)
Time: 23:36:41
(UTC+00:00)

Cosmos 1656 Rocket - Pass Details

Date: 06 June 2020
Orbit: 797 x 845 km, 71.1° (Epoch: 05 July)

Event Time Altitude Azimuth Distance (km) Brightness Sun altitude
Exits shadow 21:56:37 - 217° (SW) 2,566 6.0 -20.5°
Reaches altitude 10° 21:56:57 10° 218° (SW) 2,441 5.9 -20.5°
Maximum altitude 22:02:28 57° 297° (WNW) 971 4.2 -21.0°
Drops below altitude 10° 22:07:56 10° 16° (NNE) 2,425 6.7 -21.4°
Sets 22:10:24 0° 21° (NNE) 3,354 7.5 -21.6°
